Change the Weather History Date:

Sunday, December 16, 2012

  Actual Average (KJKL) Record (KJKL)
Temperature  
Mean Temperature 57 °F 38 °F  
Max Temperature 60 °F 46 °F 67 °F (2001)
Min Temperature 54 °F 30 °F -4 °F (1989)
Degree Days  
Heating Degree Days 8 27  
Month to date heating degree days 402  
Since 1 July heating degree days 1202  
Cooling Degree Days 0 0  
Month to date cooling degree days 0  
Year to date cooling degree days 1154  
Growing Degree Days 7 (Base 50)    
Moisture  
Dew Point 49 °F    
Average Humidity 73    
Maximum Humidity 83    
Minimum Humidity 46    
Precipitation  
Precipitation 0.00 in 0.14 in 2.03 in (2000)
Month to date precipitation 2.26  
Year to date precipitation 46.42  
Snow  
Snow 0.00 in 0.20 in - ()
Month to date snowfall 2.0  
Since 1 July snowfall 2.6  
Snow Depth -    
Sea Level Pressure  
Sea Level Pressure 29.83 in    
Wind  
Wind Speed 8 mph (SSW)    
Max Wind Speed 14 mph    
Max Gust Speed 21 mph    
Visibility 10 miles    
Events      
T = Trace of Precipitation, MM = Missing Value Source: NWS Daily Summary

Daily Weather History Graph

Daily Weather History Graph

Search for Another Location

Airport or City:

Trip Planner

Search our weather history database for the weather conditions in past years. The results will help you decide how hot, cold, wet, or windy it might be!

Date:

Astronomy

Dec. 16, 2012 Rise Set
Actual Time 7:39 AM EST 5:13 PM EST
Civil Twilight 7:10 AM EST 5:42 PM EST
Nautical Twilight 6:37 AM EST 6:15 PM EST
Astronomical Twilight 6:05 AM EST 6:47 PM EST
Moon 10:15 AM EST (12/16) 9:22 PM EST (12/16)
Length of Visible Light 10h 32m
Length of Day
9h 33m
Waxing Crescent, 16% of the Moon is Illuminated
Dec 16
Waxing Crescent
Dec 20
First Quarter
Dec 28
Full
Jan 4
Last Quarter
Jan 11
New

Hourly Weather History & Observations

Time (EST) Temp. Dew Point Humidity Pressure Visibility Wind Dir Wind Speed Gust Speed Precip Events Conditions
12:15 AM 56.5 °F 35.8 °F 46% 29.90 in 10.0 mi SSW 5.8 mph - N/A   Overcast
1:15 AM 56.7 °F 46.4 °F 69% 29.91 in 10.0 mi SW 13.8 mph 19.6 mph N/A   Overcast
1:35 AM 56.1 °F 47.3 °F 72% 29.92 in 10.0 mi SW 9.2 mph 18.4 mph N/A   Overcast
1:55 AM 55.6 °F 47.3 °F 74% 29.92 in 10.0 mi SSW 10.4 mph - N/A   Overcast
2:15 AM 54.9 °F 47.7 °F 77% 29.92 in 10.0 mi SSW 11.5 mph 17.3 mph N/A   Overcast
2:35 AM 54.9 °F 47.8 °F 77% 29.91 in 10.0 mi SSW 10.4 mph - N/A   Overcast
2:55 AM 54.7 °F 47.7 °F 77% 29.91 in 10.0 mi SSW 9.2 mph - N/A   Overcast
3:15 AM 54.5 °F 47.7 °F 78% 29.91 in 10.0 mi South 9.2 mph - N/A   Overcast
3:55 AM 54.3 °F 47.5 °F 78% 29.90 in 10.0 mi South 5.8 mph - N/A   Overcast
4:15 AM 54.5 °F 47.3 °F 77% 29.89 in 10.0 mi South 8.1 mph - N/A   Overcast
4:35 AM 54.5 °F 47.3 °F 77% 29.89 in 10.0 mi South 6.9 mph - N/A   Overcast
4:55 AM 54.3 °F 47.3 °F 77% 29.88 in 10.0 mi South 9.2 mph - N/A   Overcast
5:15 AM 54.1 °F 47.3 °F 78% 29.88 in 10.0 mi South 6.9 mph - N/A   Overcast
5:35 AM 54.1 °F 47.7 °F 79% 29.88 in 10.0 mi South 6.9 mph - N/A   Overcast
5:55 AM 54.3 °F 47.7 °F 78% 29.87 in 10.0 mi South 8.1 mph - N/A   Overcast
6:15 AM 54.5 °F 47.8 °F 78% 29.88 in 10.0 mi South 8.1 mph - N/A   Overcast
6:35 AM 54.5 °F 48.2 °F 79% 29.88 in 10.0 mi South 8.1 mph - N/A   Overcast
6:55 AM 54.5 °F 48.2 °F 79% 29.87 in 10.0 mi South 8.1 mph - N/A   Overcast
7:15 AM 54.5 °F 48.2 °F 79% 29.87 in 10.0 mi South 6.9 mph - N/A   Overcast
7:35 AM 54.5 °F 48.4 °F 80% 29.87 in 10.0 mi South 8.1 mph - N/A   Overcast
7:55 AM 54.5 °F 48.4 °F 80% 29.87 in 10.0 mi South 5.8 mph - N/A   Overcast
8:15 AM 54.7 °F 48.6 °F 80% 29.87 in 10.0 mi South 6.9 mph - N/A   Overcast
8:35 AM 54.7 °F 48.6 °F 80% 29.87 in 10.0 mi South 8.1 mph - N/A   Overcast
8:55 AM 54.9 °F 48.6 °F 79% 29.87 in 10.0 mi South 6.9 mph - N/A   Overcast
9:15 AM 55.4 °F 49.1 °F 79% 29.87 in 10.0 mi South 8.1 mph - N/A   Overcast
9:55 AM 55.0 °F 49.8 °F 83% 29.87 in 10.0 mi South 8.1 mph - N/A   Overcast
10:15 AM 55.4 °F 50.0 °F 82% 29.87 in 10.0 mi South 8.1 mph - N/A   Overcast
10:35 AM 55.4 °F 49.8 °F 81% 29.87 in 10.0 mi South 8.1 mph - N/A   Overcast
10:55 AM 55.6 °F 50.0 °F 81% 29.88 in 10.0 mi SSW 6.9 mph - N/A   Overcast
11:15 AM 55.8 °F 50.2 °F 82% 29.87 in 10.0 mi South 4.6 mph - N/A   Overcast
11:35 AM 56.3 °F 50.4 °F 80% 29.86 in 10.0 mi South 4.6 mph - N/A   Overcast
11:55 AM 56.5 °F 50.9 °F 82% 29.84 in 10.0 mi South 5.8 mph - N/A   Overcast
12:15 PM 57.2 °F 51.1 °F 80% 29.84 in 10.0 mi South 5.8 mph - N/A   Overcast
12:35 PM 58.1 °F 51.4 °F 78% 29.83 in 10.0 mi SSW 8.1 mph - N/A   Overcast
12:55 PM 58.8 °F 51.4 °F 76% 29.81 in 10.0 mi South 6.9 mph - N/A   Overcast
1:15 PM 59.4 °F 51.4 °F 75% 29.81 in 10.0 mi SW 8.1 mph - N/A   Overcast
1:35 PM 60.3 °F 51.4 °F 73% 29.80 in 10.0 mi SSW 9.2 mph - N/A   Overcast
1:55 PM 60.4 °F 51.8 °F 73% 29.79 in 10.0 mi SSW 10.4 mph 18.4 mph N/A   Overcast
2:15 PM 60.4 °F 51.8 °F 73% 29.78 in 10.0 mi South 8.1 mph - N/A   Mostly Cloudy
2:35 PM 60.8 °F 51.6 °F 72% 29.78 in 10.0 mi SSW 10.4 mph - N/A   Overcast
2:55 PM 60.8 °F 51.4 °F 71% 29.78 in 10.0 mi SSW 10.4 mph 17.3 mph N/A   Overcast
3:15 PM 60.8 °F 51.8 °F 72% 29.77 in 10.0 mi SW 9.2 mph - N/A   Overcast
3:35 PM 60.8 °F 51.8 °F 72% 29.77 in 10.0 mi WSW 9.2 mph - N/A   Overcast
3:55 PM 60.4 °F 51.8 °F 73% 29.76 in 10.0 mi SW 5.8 mph - N/A   Mostly Cloudy
4:15 PM 60.3 °F 51.4 °F 73% 29.76 in 10.0 mi SSW 6.9 mph - N/A   Scattered Clouds
4:35 PM 60.1 °F 51.3 °F 73% 29.76 in 10.0 mi SSW 5.8 mph - N/A   Clear
4:55 PM 59.9 °F 51.1 °F 73% 29.75 in 10.0 mi SSW 6.9 mph - N/A   Clear
5:15 PM 59.2 °F 51.1 °F 74% 29.76 in 10.0 mi South 6.9 mph - N/A   Clear
5:35 PM 59.4 °F 50.9 °F 74% 29.77 in 10.0 mi SSW 5.8 mph - N/A   Clear
5:55 PM 59.9 °F 50.9 °F 72% 29.76 in 10.0 mi SSW 6.9 mph - N/A   Clear
6:15 PM 59.2 °F 50.9 °F 74% 29.78 in 10.0 mi SW 6.9 mph - N/A   Clear
6:35 PM 59.5 °F 50.4 °F 72% 29.77 in 10.0 mi SSW 8.1 mph - N/A   Clear
6:55 PM 59.7 °F 50.0 °F 70% 29.76 in 10.0 mi SSW 11.5 mph - N/A   Clear
7:15 PM 58.8 °F 50.0 °F 73% 29.75 in 10.0 mi South 13.8 mph - N/A   Clear
7:35 PM 59.5 °F 49.5 °F 69% 29.75 in 10.0 mi South 11.5 mph 19.6 mph N/A   Scattered Clouds
7:55 PM 59.9 °F 49.1 °F 67% 29.75 in 10.0 mi SSW 9.2 mph - N/A   Mostly Cloudy
8:15 PM 59.9 °F 48.9 °F 67% 29.76 in 10.0 mi WSW 6.9 mph - N/A   Overcast
8:35 PM 59.9 °F 48.6 °F 66% 29.77 in 10.0 mi SW 4.6 mph - N/A   Overcast
8:55 PM 59.2 °F 48.6 °F 68% 29.78 in 10.0 mi SW 4.6 mph - N/A   Overcast
9:15 PM 59.2 °F 48.4 °F 67% 29.78 in 10.0 mi SSW 6.9 mph - N/A   Overcast
9:35 PM 59.2 °F 48.2 °F 67% 29.76 in 10.0 mi South 12.7 mph - N/A   Overcast
9:55 PM 59.9 °F 47.7 °F 64% 29.73 in 10.0 mi South 13.8 mph 20.7 mph N/A   Scattered Clouds
10:15 PM 60.1 °F 46.9 °F 62% 29.75 in 10.0 mi SW 9.2 mph - N/A   Scattered Clouds
10:35 PM 60.3 °F 46.4 °F 60% 29.75 in 10.0 mi SSW 9.2 mph - N/A   Clear
10:55 PM 60.1 °F 46.4 °F 61% 29.77 in 10.0 mi SSW 6.9 mph - N/A   Clear
11:15 PM 59.9 °F 46.0 °F 60% 29.80 in 10.0 mi WNW 5.8 mph - N/A   Clear
11:35 PM 59.7 °F 46.4 °F 61% 29.80 in 10.0 mi West 5.8 mph - N/A   Clear
11:55 PM 58.8 °F 46.4 °F 63% 29.80 in 10.0 mi Calm Calm - N/A   Clear